Time,TemperatureF,DewpointF,PressureIn,WindDirection,WindDirectionDegrees,WindSpeedMPH,WindSpeedGustMPH,Humidity,HourlyPrecipIn,Conditions,Clouds,dailyrainin,SoftwareType,DateUTC
2013-01-16 00:17:00,21.6,20.0,30.15,NE,43,0.0,1.0,92,0.00,,,0.00,weatherlink.com 1.10,2013-01-16 05:17:00,
2013-01-16 00:32:00,21.6,20.0,30.15,NE,43,0.0,0.0,93,0.00,,,0.00,weatherlink.com 1.10,2013-01-16 05:32:00,
2013-01-16 00:47:00,21.5,20.0,30.14,NE,43,0.0,0.0,93,0.00,,,0.00,weatherlink.com 1.10,2013-01-16 05:47:00,
2013-01-16 01:03:00,21.6,20.0,30.13,NE,43,0.0,0.0,93,0.00,,,0.00,weatherlink.com 1.10,2013-01-16 06:03:00,
2013-01-16 01:17:00,21.3,20.0,30.12,NE,43,0.0,0.0,93,0.00,,,0.00,weatherlink.com 1.10,2013-01-16 06:17:00,
2013-01-16 01:32:00,20.8,19.0,30.12,NE,43,0.0,0.0,92,0.00,,,0.00,weatherlink.com 1.10,2013-01-16 06:32:00,
2013-01-16 01:47:00,20.7,19.0,30.12,NE,43,2.0,3.0,93,0.00,,,0.00,weatherlink.com 1.10,2013-01-16 06:47:00,
2013-01-16 02:02:00,20.3,19.0,30.12,NE,42,3.0,3.0,93,0.00,,,0.00,weatherlink.com 1.10,2013-01-16 07:02:00,
2013-01-16 02:17:00,21.3,20.0,30.12,NE,42,0.0,0.0,95,0.00,,,0.00,weatherlink.com 1.10,2013-01-16 07:17:00,
2013-01-16 02:32:00,21.5,20.0,30.11,NE,42,0.0,0.0,94,0.00,,,0.00,weatherlink.com 1.10,2013-01-16 07:32:00,
2013-01-16 02:47:00,21.0,20.0,30.12,NE,42,0.0,0.0,94,0.00,,,0.00,weatherlink.com 1.10,2013-01-16 07:47:00,
2013-01-16 03:02:00,21.1,20.0,30.11,NE,43,0.0,0.0,94,0.00,,,0.00,weatherlink.com 1.10,2013-01-16 08:02:00,
2013-01-16 03:17:00,21.3,20.0,30.10,NE,42,0.0,1.0,94,0.00,,,0.00,weatherlink.com 1.10,2013-01-16 08:17:00,
2013-01-16 03:32:00,21.4,20.0,30.10,NE,43,0.0,0.0,94,0.00,,,0.00,weatherlink.com 1.10,2013-01-16 08:32:00,
2013-01-16 03:47:00,21.7,20.0,30.10,NE,43,0.0,1.0,94,0.00,,,0.00,weatherlink.com 1.10,2013-01-16 08:47:00,
2013-01-16 04:02:00,22.1,21.0,30.09,SE,128,0.0,3.0,94,0.00,,,0.00,weatherlink.com 1.10,2013-01-16 09:02:00,
2013-01-16 04:17:00,22.5,21.0,30.09,SE,128,0.0,1.0,94,0.00,,,0.00,weatherlink.com 1.10,2013-01-16 09:17:00,
2013-01-16 04:32:00,22.7,21.0,30.08,SE,128,1.0,1.0,94,0.00,,,0.00,weatherlink.com 1.10,2013-01-16 09:32:00,
2013-01-16 04:47:00,23.3,22.0,30.06,SE,128,0.0,2.0,94,0.00,,,0.00,weatherlink.com 1.10,2013-01-16 09:47:00,
2013-01-16 05:02:00,23.2,22.0,30.07,SE,128,0.0,0.0,93,0.00,,,0.00,weatherlink.com 1.10,2013-01-16 10:02:00,
2013-01-16 05:17:00,22.9,21.0,30.07,SE,128,0.0,1.0,93,0.00,,,0.00,weatherlink.com 1.10,2013-01-16 10:17:00,
2013-01-16 05:32:00,22.6,21.0,30.05,SE,128,0.0,1.0,93,0.00,,,0.00,weatherlink.com 1.10,2013-01-16 10:32:00,
2013-01-16 05:47:00,22.5,21.0,30.05,SE,128,0.0,0.0,93,0.00,,,0.00,weatherlink.com 1.10,2013-01-16 10:47:00,
2013-01-16 06:02:00,22.5,21.0,30.05,SE,128,0.0,0.0,94,0.00,,,0.00,weatherlink.com 1.10,2013-01-16 11:02:00,
2013-01-16 06:17:00,22.0,20.0,30.04,SE,128,0.0,0.0,93,0.00,,,0.00,weatherlink.com 1.10,2013-01-16 11:17:00,
2013-01-16 06:32:00,22.5,21.0,30.04,SE,128,0.0,1.0,95,0.00,,,0.00,weatherlink.com 1.10,2013-01-16 11:32:00,
2013-01-16 06:47:00,22.9,22.0,30.04,SE,128,0.0,0.0,95,0.00,,,0.00,weatherlink.com 1.10,2013-01-16 11:47:00,
2013-01-16 07:03:00,23.1,22.0,30.03,SE,128,0.0,1.0,94,0.00,,,0.00,weatherlink.com 1.10,2013-01-16 12:03:00,
2013-01-16 07:18:00,23.0,22.0,30.02,SE,128,0.0,0.0,94,0.00,,,0.00,weatherlink.com 1.10,2013-01-16 12:18:00,
2013-01-16 07:33:00,22.6,21.0,30.02,SE,128,0.0,0.0,93,0.00,,,0.00,weatherlink.com 1.10,2013-01-16 12:33:00,
2013-01-16 07:48:00,22.1,20.0,30.02,SE,128,0.0,0.0,93,0.00,,,0.00,weatherlink.com 1.10,2013-01-16 12:48:00,
2013-01-16 08:03:00,21.6,20.0,30.03,SE,128,0.0,1.0,93,0.00,,,0.00,weatherlink.com 1.10,2013-01-16 13:03:00,
2013-01-16 08:18:00,21.1,20.0,30.02,SE,128,0.0,0.0,94,0.00,,,0.00,weatherlink.com 1.10,2013-01-16 13:18:00,
2013-01-16 08:33:00,21.0,20.0,30.02,SE,128,0.0,0.0,94,0.00,,,0.00,weatherlink.com 1.10,2013-01-16 13:33:00,
2013-01-16 08:48:00,21.9,21.0,30.02,SE,128,0.0,1.0,95,0.00,,,0.00,weatherlink.com 1.10,2013-01-16 13:48:00,
2013-01-16 09:03:00,22.5,21.0,30.02,SE,128,0.0,2.0,94,0.00,,,0.00,weatherlink.com 1.10,2013-01-16 14:03:00,
2013-01-16 09:18:00,23.8,22.0,30.02,West,266,3.0,6.0,94,0.00,,,0.00,weatherlink.com 1.10,2013-01-16 14:18:00,
2013-01-16 09:33:00,25.0,23.0,30.03,SW,219,5.0,9.0,92,0.00,,,0.00,weatherlink.com 1.10,2013-01-16 14:33:00,
2013-01-16 09:48:00,26.1,24.0,30.04,WSW,254,3.0,6.0,90,0.00,,,0.00,weatherlink.com 1.10,2013-01-16 14:48:00,
2013-01-16 10:18:00,27.5,24.0,30.03,WSW,252,5.0,8.0,87,0.00,,,0.00,weatherlink.com 1.10,2013-01-16 15:18:00,
2013-01-16 10:33:00,27.9,24.0,30.03,West,265,0.0,11.0,85,0.00,,,0.00,weatherlink.com 1.10,2013-01-16 15:33:00,
2013-01-16 10:48:00,28.6,24.0,30.03,SW,223,2.0,7.0,84,0.00,,,0.00,weatherlink.com 1.10,2013-01-16 15:48:00,
2013-01-16 11:03:00,29.0,24.0,30.02,SW,234,1.0,7.0,82,0.00,,,0.00,weatherlink.com 1.10,2013-01-16 16:03:00,
2013-01-16 11:18:00,29.4,24.0,30.01,West,278,4.0,7.0,81,0.00,,,0.00,weatherlink.com 1.10,2013-01-16 16:18:00,
2013-01-16 11:33:00,30.1,24.0,30.01,West,261,6.0,11.0,77,0.00,,,0.00,weatherlink.com 1.10,2013-01-16 16:33:00,
2013-01-16 11:48:00,30.9,24.0,30.00,WSW,238,3.0,6.0,75,0.00,,,0.00,weatherlink.com 1.10,2013-01-16 16:48:00,
2013-01-16 12:03:00,31.5,24.0,29.98,WSW,248,2.0,7.0,74,0.00,,,0.00,weatherlink.com 1.10,2013-01-16 17:03:00,
2013-01-16 12:18:00,31.8,23.0,29.97,SSW,205,6.0,8.0,71,0.00,,,0.00,weatherlink.com 1.10,2013-01-16 17:18:00,
2013-01-16 12:33:00,32.3,24.0,29.96,South,174,1.0,9.0,70,0.00,,,0.00,weatherlink.com 1.10,2013-01-16 17:33:00,
2013-01-16 12:48:00,32.6,23.0,29.94,South,178,5.0,11.0,67,0.01,,,0.01,weatherlink.com 1.10,2013-01-16 17:48:00,
2013-01-16 13:03:00,33.2,24.0,29.94,SW,229,4.0,12.0,68,0.01,,,0.01,weatherlink.com 1.10,2013-01-16 18:03:00,
2013-01-16 13:18:00,33.7,23.0,29.94,NNW,343,1.0,11.0,66,0.01,,,0.01,weatherlink.com 1.10,2013-01-16 18:18:00,
2013-01-16 13:34:00,34.5,23.0,29.93,SW,223,4.0,9.0,63,0.01,,,0.01,weatherlink.com 1.10,2013-01-16 18:34:00,
2013-01-16 13:49:00,35.1,23.0,29.92,West,270,3.0,9.0,61,0.00,,,0.01,weatherlink.com 1.10,2013-01-16 18:49:00,
2013-01-16 14:04:00,35.5,23.0,29.92,WSW,257,0.0,10.0,60,0.00,,,0.01,weatherlink.com 1.10,2013-01-16 19:04:00,
2013-01-16 14:19:00,35.9,22.0,29.93,SW,214,3.0,11.0,57,0.00,,,0.01,weatherlink.com 1.10,2013-01-16 19:19:00,
2013-01-16 14:34:00,36.0,22.0,29.93,West,279,5.0,10.0,58,0.01,,,0.02,weatherlink.com 1.10,2013-01-16 19:34:00,
2013-01-16 14:49:00,36.1,22.0,29.92,WSW,240,5.0,11.0,57,0.01,,,0.02,weatherlink.com 1.10,2013-01-16 19:49:00,
2013-01-16 15:04:00,36.0,22.0,29.92,WSW,256,1.0,12.0,58,0.01,,,0.02,weatherlink.com 1.10,2013-01-16 20:04:00,
2013-01-16 15:19:00,36.3,22.0,29.92,West,277,0.0,13.0,56,0.01,,,0.02,weatherlink.com 1.10,2013-01-16 20:19:00,
2013-01-16 15:34:00,36.2,22.0,29.92,West,264,5.0,15.0,56,0.00,,,0.02,weatherlink.com 1.10,2013-01-16 20:34:00,
2013-01-16 15:53:00,36.1,22.0,29.92,WSW,252,2.0,11.0,56,0.00,,,0.02,weatherlink.com 1.10,2013-01-16 20:53:00,
2013-01-16 16:04:00,36.1,22.0,29.92,WNW,285,3.0,13.0,57,0.00,,,0.02,weatherlink.com 1.10,2013-01-16 21:04:00,
2013-01-16 16:19:00,35.8,22.0,29.92,SSW,211,7.0,14.0,58,0.00,,,0.02,weatherlink.com 1.10,2013-01-16 21:19:00,
2013-01-16 16:34:00,35.0,22.0,29.92,SW,225,6.0,12.0,60,0.00,,,0.02,weatherlink.com 1.10,2013-01-16 21:34:00,
2013-01-16 16:49:00,34.5,23.0,29.94,West,277,6.0,8.0,62,0.00,,,0.02,weatherlink.com 1.10,2013-01-16 21:49:00,
2013-01-16 17:04:00,34.1,23.0,29.94,SE,139,0.0,9.0,65,0.00,,,0.02,weatherlink.com 1.10,2013-01-16 22:04:00,
2013-01-16 17:19:00,33.8,23.0,29.95,SW,227,9.0,10.0,65,0.00,,,0.02,weatherlink.com 1.10,2013-01-16 22:19:00,
2013-01-16 17:34:00,33.7,24.0,29.95,SW,229,6.0,14.0,67,0.00,,,0.02,weatherlink.com 1.10,2013-01-16 22:34:00,
2013-01-16 17:49:00,33.5,24.0,29.95,WSW,249,6.0,8.0,67,0.00,,,0.02,weatherlink.com 1.10,2013-01-16 22:49:00,
2013-01-16 18:04:00,33.4,24.0,29.96,WSW,258,2.0,10.0,69,0.00,,,0.02,weatherlink.com 1.10,2013-01-16 23:04:00,
2013-01-16 18:19:00,33.2,24.0,29.97,WSW,237,3.0,10.0,70,0.00,,,0.02,weatherlink.com 1.10,2013-01-16 23:19:00,
2013-01-16 18:34:00,33.0,24.0,29.96,SSW,196,6.0,9.0,70,0.00,,,0.02,weatherlink.com 1.10,2013-01-16 23:34:00,
2013-01-16 18:49:00,33.2,25.0,29.96,West,268,6.0,12.0,71,0.00,,,0.02,weatherlink.com 1.10,2013-01-16 23:49:00,
2013-01-16 19:04:00,33.3,24.0,29.96,SW,227,5.0,12.0,70,0.00,,,0.02,weatherlink.com 1.10,2013-01-17 00:04:00,
2013-01-16 19:19:00,33.4,25.0,29.96,SE,140,4.0,15.0,71,0.00,,,0.02,weatherlink.com 1.10,2013-01-17 00:19:00,
2013-01-16 19:34:00,33.5,25.0,29.96,West,277,5.0,11.0,71,0.00,,,0.02,weatherlink.com 1.10,2013-01-17 00:34:00,
2013-01-16 19:49:00,33.5,25.0,29.97,West,263,0.0,9.0,72,0.00,,,0.02,weatherlink.com 1.10,2013-01-17 00:49:00,
2013-01-16 20:04:00,33.5,26.0,29.98,WSW,252,4.0,8.0,74,0.00,,,0.02,weatherlink.com 1.10,2013-01-17 01:04:00,
2013-01-16 20:19:00,33.5,26.0,29.98,NNW,336,0.0,12.0,74,0.00,,,0.02,weatherlink.com 1.10,2013-01-17 01:19:00,
2013-01-16 20:34:00,33.1,27.0,29.99,WSW,245,3.0,12.0,78,0.00,,,0.02,weatherlink.com 1.10,2013-01-17 01:34:00,
2013-01-16 20:49:00,32.7,28.0,29.99,West,272,2.0,13.0,81,0.00,,,0.02,weatherlink.com 1.10,2013-01-17 01:49:00,
2013-01-16 21:04:00,32.5,28.0,30.00,WNW,294,1.0,11.0,83,0.00,,,0.02,weatherlink.com 1.10,2013-01-17 02:04:00,
2013-01-16 21:19:00,32.5,28.0,30.01,West,281,7.0,8.0,83,0.00,,,0.02,weatherlink.com 1.10,2013-01-17 02:19:00,
2013-01-16 21:34:00,32.9,28.0,30.01,WSW,239,2.0,13.0,81,0.00,,,0.02,weatherlink.com 1.10,2013-01-17 02:34:00,
2013-01-16 21:49:00,33.2,28.0,30.02,West,259,0.0,14.0,80,0.00,,,0.02,weatherlink.com 1.10,2013-01-17 02:49:00,
2013-01-16 22:04:00,33.1,28.0,30.02,West,277,5.0,9.0,81,0.00,,,0.02,weatherlink.com 1.10,2013-01-17 03:04:00,
2013-01-16 22:19:00,33.1,28.0,30.02,WNW,289,4.0,9.0,82,0.00,,,0.02,weatherlink.com 1.10,2013-01-17 03:19:00,
2013-01-16 22:34:00,33.2,28.0,30.02,West,267,2.0,12.0,82,0.00,,,0.02,weatherlink.com 1.10,2013-01-17 03:34:00,
2013-01-16 22:49:00,33.2,28.0,30.02,WSW,245,5.0,7.0,82,0.00,,,0.02,weatherlink.com 1.10,2013-01-17 03:49:00,
2013-01-16 23:04:00,33.2,29.0,30.02,NW,322,0.0,7.0,83,0.00,,,0.02,weatherlink.com 1.10,2013-01-17 04:04:00,
2013-01-16 23:19:00,33.3,29.0,30.02,NW,310,1.0,8.0,83,0.00,,,0.02,weatherlink.com 1.10,2013-01-17 04:19:00,
2013-01-16 23:34:00,33.3,29.0,30.03,NW,318,0.0,8.0,83,0.00,,,0.02,weatherlink.com 1.10,2013-01-17 04:34:00,
2013-01-16 23:49:00,33.4,29.0,30.03,WNW,286,0.0,8.0,83,0.00,,,0.02,weatherlink.com 1.10,2013-01-17 04:49:00,